Жангизтобе

Казахстан     49°12′53″N   81°12′52″E
темп.,
°C
ветер,
м/с
пор.,
м/с
влажн.,
%
обл.,
%
осадки,
мм/ч
давл.,
гПа
погр.,
м
6 мая, чт
чт600:00+15ю1145100 0.0 100911
03:00+14ююв224799 0.0 100811
06:00+14ююв334918 0.0 100931
09:00+22ююв682857 0.0 1008595
12:00+27ююв661922 0.0 1007998
15:00+30ююв441591 0.0 10062014
18:00+29в341799 0.0 1005290
21:00+22юв4724100 0.0 1007100
7 мая, пт
пт700:00+21ююв4923100 0.0 1006137
03:00+17юз2233100 0.0 100714
06:00+18зюз3335100 0.0 101048
09:00+21ссз6838100 0.0 1011554
12:00+21с9946100 0.0 10141400
15:00+20ссз8847100 0.0 10151763
18:00+15ссз6764100 0.0 1018651
21:00+13ссз3563100 0.0 1020357
8 мая, сб
сб800:00+12с2267100 0.0 101935
03:00+10сз2268100 0.0 102036
06:00+10ссз3761100 0.0 1020184
09:00+15с7835100 0.0 1020774
12:00+19с7827100 0.0 10191127
15:00+21с782443 0.0 10171217
18:00+19с78297 0.0 1017954
21:00+13ссз364785 0.0 101982
9 мая, вс
вс900:00+11сз345449 0.0 101846
03:00+8зсз33595 0.0 101824
06:00+8з22594 0.0 101814
09:00+15сз11372 0.0 1016359
12:00+21ссв222252 0.0 1014775
15:00+24св221872 0.0 10121180
18:00+25ссв221815 0.0 10111387
21:00+17всв333684 0.0 101131
10 мая, пн
пн1000:00+15в114199 0.0 101011
03:00+16в1142100 0.0 100811
06:00+15в224468 0.0 100815
09:00+21ю3429100 0.0 1007373
12:00+24юз672330 0.1 10061344
15:00+26з8922100 0.0 10043486
18:00+17сз11126494 0.5 1008815
21:00+14зсз367898 0.3 1008160